Location: Berlin
(38.3226°N, 75.2177°W)
Time: 23:13:46
(UTC+00:00)

CENTAUR R/B - Pass Details

Date: 26 October 2020
Orbit: 749 x 1439 km, 63.5° (Epoch: 22 November)

Event Time Altitude Azimuth Distance (km) Brightness Sun altitude
Exits shadow 10:44:29 - 293° (WNW) 2,830 4.3 -7.9°
Reaches altitude 10° 10:45:04 10° 297° (WNW) 2,727 4.2 -7.8°
Maximum altitude 10:48:45 16° 333° (NNW) 2,480 4.3 -7.1°
Drops below altitude 10° 10:52:46 10° 7° (N) 3,020 5.0 -6.3°
Sets 10:57:09 0° 29° (NNE) 4,140 6.0 -5.4°
